Location: Weatherford
(35.5260°N, 98.7070°W)
Time: 06:03:45
(UTC-05:00)

Amateur Radio Satellites - All Passes

Search period start: 28 August 2014 05:33
Search period end: 29 August 2014 05:33
Location: Weatherford, 35.5260°N, 98.7070°W

Satellite Date Start Highest point End Downlink Frequencies (MHz)
Time Altitude Azimuth
UOSAT-12 28 Aug 05:45:29 05:47:46 14° 107° (ESE) 05:50:04 437.025 FM, 437.400 FM
AO-7 28 Aug 05:49:31 05:57:45 66° 104° (ESE) 06:05:56 29.400 - 29.500 MHz
Uosat F 28 Aug 05:57:59 06:03:01 86° 103° (ESE) 06:08:01 435.120 FM
OPAL 28 Aug 06:12:52 06:16:48 23° 263° (W) 06:20:47 ?
STRAND 1 28 Aug 06:15:02 06:17:10 13° 63° (ENE) 06:19:17 ?
Oscar 10/S400 28 Aug 06:17:24 07:21:42 20° 256° (WSW) 09:29:16 145.825 - 145.975 CW/USB, Beacon 145.810 USB
TMSAT-1 28 Aug 06:19:58 06:21:57 12° 298° (WNW) 06:23:55 436.925 FM
JAS-2 28 Aug 06:36:55 06:40:43 20° 95° (E) 06:44:41 435.800 - 435.900 CW/SSB, 435.910 FM
SO-50 28 Aug 06:50:55 06:52:35 12° 316° (NW) 06:54:16 436.795 FM
RS-15 28 Aug 07:11:57 07:19:14 20° 101° (E) 07:26:23 29.354 - 29.394 USB, Beacon 29.352 USB
UOSAT-12 28 Aug 07:22:53 07:27:23 54° 303° (WNW) 07:31:59 437.025 FM, 437.400 FM
Hamsat 28 Aug 07:23:55 07:28:17 70° 101° (E) 07:32:34 145.90 MHz
AO-7 28 Aug 07:43:26 07:49:52 26° 301° (WNW) 07:56:17 29.400 - 29.500 MHz
STRAND 1 28 Aug 07:50:39 07:55:43 69° 258° (WSW) 08:00:49 ?
JAS-2 28 Aug 08:21:03 08:25:56 41° 288° (WNW) 08:31:08 435.800 - 435.900 CW/SSB, 435.910 FM
Saudisat 1A 28 Aug 08:27:53 08:31:26 23° 51° (NE) 08:34:57 436.775 MHz
SO-67 28 Aug 08:40:16 08:43:45 81° 103° (ESE) 08:47:11 435.3500 MHz FM
KITSAT 1 28 Aug 08:49:43 08:56:09 25° 46° (NE) 09:02:33 435.175 FM
RS-15 28 Aug 09:18:58 09:30:09 86° 299° (WNW) 09:41:08 29.354 - 29.394 USB, Beacon 29.352 USB
Saudisat 1A 28 Aug 10:07:06 10:11:01 32° 247° (WSW) 10:14:55 436.775 MHz
HO-68 28 Aug 10:29:54 10:37:00 64° 103° (ESE) 10:44:05 435.675 MHz FM
UKube-1 28 Aug 10:33:55 10:37:56 36° 99° (E) 10:41:55 145.840 MHz, 145.915 MHz
Oscar 11 28 Aug 10:43:04 10:46:54 29° 97° (E) 10:50:41 145.825 FM, Beacon 2401.500 USB
KITSAT 1 28 Aug 10:44:13 10:52:16 73° 246° (WSW) 11:00:15 435.175 FM
FUNcube-1 28 Aug 11:01:42 11:04:54 19° 94° (E) 11:08:07 145.950 - 145.970 MHz USB
ISS 28 Aug 11:09:45 11:12:22 22° 130° (SE) 11:15:00 145.800 FM
RS-15 28 Aug 11:35:42 11:44:13 25° 323° (NW) 11:52:45 29.354 - 29.394 USB, Beacon 29.352 USB
UKube-1 28 Aug 12:11:02 12:13:49 17° 293° (WNW) 12:16:36 145.840 MHz, 145.915 MHz
HO-68 28 Aug 12:18:52 12:24:05 23° 299° (WNW) 12:29:18 435.675 MHz FM
Oscar 11 28 Aug 12:19:37 12:22:52 21° 291° (WNW) 12:26:07 145.825 FM, Beacon 2401.500 USB
FUNcube-1 28 Aug 12:37:14 12:41:20 35° 288° (WNW) 12:45:28 145.950 - 145.970 MHz USB
KITSAT 1 28 Aug 12:44:57 12:46:16 10° 262° (W) 12:47:35 435.175 FM
ISS 28 Aug 12:45:59 12:48:59 31° 325° (NW) 12:51:59 145.800 FM
Oscar 16 28 Aug 12:53:37 12:54:35 11° 61° (ENE) 12:55:32 437.025 USB, Beacon 2401.1428
MaSat-1 28 Aug 13:26:03 13:28:59 16° 100° (E) 13:32:03 437.345 MHz
JAS-1B 28 Aug 13:30:40 13:37:38 23° 61° (ENE) 13:44:10 435.800 - 435.900 CW/SSB
SO-50 28 Aug 13:41:33 13:45:54 33° 54° (NE) 13:50:16 436.795 FM
Oscar 19 28 Aug 13:53:58 13:58:47 42° 71° (ENE) 14:03:39 437.125 CW, 437.150 USB
RS-15 28 Aug 13:59:01 14:02:36 12° 360° (N) 14:06:11 29.354 - 29.394 USB, Beacon 29.352 USB
PANSAT 28 Aug 14:10:39 14:13:42 22° 169° (S) 14:16:45 not established
ITAMSAT 1 28 Aug 14:20:47 14:25:22 33° 70° (ENE) 14:29:58 435.822 SSB
Oscar 16 28 Aug 14:28:01 14:33:10 84° 257° (WSW) 14:38:22 437.025 USB, Beacon 2401.1428
Uribyol 2 28 Aug 14:31:04 14:35:57 45° 72° (ENE) 14:40:50 436.500 FM
AO-Echo 28 Aug 14:41:30 14:46:31 59° 74° (ENE) 14:51:23 ?
AO-27 28 Aug 14:48:30 14:53:37 65° 74° (ENE) 14:58:45 436.795 MHz FM
AO-7 28 Aug 14:58:30 15:01:49 13° 50° (NE) 15:05:09 29.400 - 29.500 MHz
MaSat-1 28 Aug 15:00:51 15:05:29 50° 297° (WNW) 15:10:30 437.345 MHz
Gurwin Techsat 1B 28 Aug 15:02:29 15:07:19 37° 70° (ENE) 15:12:10 435.225 FM
JAS-1B 28 Aug 15:17:13 15:27:11 85° 256° (WSW) 15:36:24 435.800 - 435.900 CW/SSB
SO-50 28 Aug 15:22:22 15:26:19 26° 249° (WSW) 15:30:17 436.795 FM
Oscar 19 28 Aug 15:34:38 15:38:16 19° 266° (W) 15:41:57 437.125 CW, 437.150 USB
PANSAT 28 Aug 15:50:06 15:53:27 28° 182° (S) 15:56:47 not established
TMSAT-1 28 Aug 15:55:09 16:00:27 87° 76° (ENE) 16:05:46 436.925 FM
UOSAT-12 28 Aug 15:55:18 15:59:56 55° 57° (ENE) 16:04:29 437.025 FM, 437.400 FM
ITAMSAT 1 28 Aug 16:00:39 16:04:51 25° 264° (W) 16:09:04 435.822 SSB
Uribyol 2 28 Aug 16:12:07 16:15:36 18° 266° (W) 16:19:05 436.500 FM
RS-15 28 Aug 16:12:28 16:21:03 25° 36° (NE) 16:29:47 29.354 - 29.394 USB, Beacon 29.352 USB
AO-Echo 28 Aug 16:23:13 16:25:33 13° 267° (W) 16:27:52 ?
Oscar 10/S400 28 Aug 16:26:35 16:44:12 26° 148° (SSE) 16:59:46 145.825 - 145.975 CW/USB, Beacon 145.810 USB
AO-27 28 Aug 16:31:25 16:33:31 12° 268° (W) 16:35:37 436.795 MHz FM
Gurwin Techsat 1B 28 Aug 16:43:10 16:47:20 23° 265° (W) 16:51:31 435.225 FM
AO-7 28 Aug 16:44:49 16:53:03 68° 69° (ENE) 17:01:18 29.400 - 29.500 MHz
OPAL 28 Aug 16:48:20 16:50:16 12° 93° (E) 16:52:11 ?
PCSat 28 Aug 17:05:44 17:09:36 20° 105° (ESE) 17:13:29 145.825 MHz
Uosat F 28 Aug 17:08:11 17:13:12 86° 76° (ENE) 17:18:14 435.120 FM
JAS-1B 28 Aug 17:12:23 17:18:20 18° 270° (W) 17:24:07 435.800 - 435.900 CW/SSB
PANSAT 28 Aug 17:30:24 17:33:09 19° 194° (SSW) 17:35:53 not established
UOSAT-12 28 Aug 17:37:11 17:39:34 14° 253° (WSW) 17:41:56 437.025 FM, 437.400 FM
ISS 28 Aug 17:41:28 17:42:59 12° 25° (NNE) 17:44:29 145.800 FM
Hamsat 28 Aug 18:14:25 18:18:16 33° 72° (ENE) 18:22:10 145.90 MHz
Sapphire 28 Aug 18:17:24 18:22:47 89° 116° (ESE) 18:28:14 437.095 MHz 1200 baud AX-25 AFSK
RS-15 28 Aug 18:24:03 18:35:14 83° 61° (ENE) 18:46:53 29.354 - 29.394 USB, Beacon 29.352 USB
OPAL 28 Aug 18:24:21 18:29:33 70° 287° (WNW) 18:34:43 ?
JAS-2 28 Aug 18:29:17 18:35:33 55° 74° (ENE) 18:41:07 435.800 - 435.900 CW/SSB, 435.910 FM
AO-7 28 Aug 18:40:06 18:46:19 23° 265° (W) 18:52:35 29.400 - 29.500 MHz
PCSat 28 Aug 18:47:27 18:52:37 46° 301° (WNW) 18:57:50 145.825 MHz
SO-67 28 Aug 19:11:32 19:13:44 16° 70° (ENE) 19:15:57 435.3500 MHz FM
ISS 28 Aug 19:16:50 19:20:10 82° 42° (NE) 19:23:30 145.800 FM
Hamsat 28 Aug 19:51:26 19:54:18 17° 267° (W) 19:57:11 145.90 MHz
STRAND 1 28 Aug 20:04:21 20:09:19 51° 100° (E) 20:14:16 ?
Sapphire 28 Aug 20:04:28 20:06:57 13° 313° (NW) 20:09:26 437.095 MHz 1200 baud AX-25 AFSK
JAS-2 28 Aug 20:16:27 20:20:46 19° 265° (W) 20:24:47 435.800 - 435.900 CW/SSB, 435.910 FM
RS-15 28 Aug 20:38:31 20:46:18 22° 258° (WSW) 20:54:22 29.354 - 29.394 USB, Beacon 29.352 USB
SO-67 28 Aug 20:43:50 20:46:36 22° 264° (W) 20:49:22 435.3500 MHz FM
HO-68 28 Aug 20:55:34 21:01:53 36° 65° (ENE) 21:08:12 435.675 MHz FM
UKube-1 28 Aug 21:27:06 21:30:30 23° 69° (ENE) 21:33:53 145.840 MHz, 145.915 MHz
Oscar 11 28 Aug 21:36:14 21:39:00 17° 68° (ENE) 21:41:47 145.825 FM, Beacon 2401.500 USB
STRAND 1 28 Aug 21:44:53 21:48:04 17° 295° (WNW) 21:51:15 ?
Saudisat 1A 28 Aug 22:34:17 22:35:28 11° 107° (ESE) 22:36:40 436.775 MHz
HO-68 28 Aug 22:42:52 22:49:25 39° 261° (W) 22:56:02 435.675 MHz FM
UKube-1 28 Aug 23:02:52 23:06:32 27° 263° (W) 23:10:13 145.840 MHz, 145.915 MHz
Oscar 11 28 Aug 23:10:53 23:14:52 36° 262° (W) 23:18:54 145.825 FM, Beacon 2401.500 USB
KITSAT 1 28 Aug 23:16:04 23:21:53 22° 103° (ESE) 23:27:43 435.175 FM
MaSat-1 28 Aug 23:22:36 23:25:46 18° 54° (NE) 23:28:41 437.345 MHz
FUNcube-1 28 Aug 23:30:30 23:34:36 60° 260° (W) 23:38:46 145.950 - 145.970 MHz USB
Saudisat 1A 29 Aug 00:10:08 00:14:29 61° 302° (WNW) 00:18:52 436.775 MHz
MaSat-1 29 Aug 00:58:57 01:03:00 35° 254° (WSW) 01:06:31 437.345 MHz
KITSAT 1 29 Aug 01:08:27 01:16:30 69° 300° (WNW) 01:24:36 435.175 FM
PCSat 29 Aug 01:58:02 01:59:11 11° 44° (NE) 02:00:19 145.825 MHz
Oscar 19 29 Aug 02:09:29 02:13:09 19° 94° (E) 02:16:49 437.125 CW, 437.150 USB
ITAMSAT 1 29 Aug 02:37:54 02:40:46 15° 93° (E) 02:43:39 435.822 SSB
Oscar 16 29 Aug 02:42:58 02:47:57 44° 99° (E) 02:52:53 437.025 USB, Beacon 2401.1428
Uribyol 2 29 Aug 02:47:35 02:51:25 21° 95° (E) 02:55:14 436.500 FM
AO-Echo 29 Aug 02:52:34 02:56:13 22° 95° (E) 02:59:52 ?
AO-27 29 Aug 03:05:03 03:09:33 29° 97° (E) 03:14:02 436.795 MHz FM
Sapphire 29 Aug 03:08:39 03:13:41 37° 57° (ENE) 03:18:40 437.095 MHz 1200 baud AX-25 AFSK
KITSAT 1 29 Aug 03:08:46 03:13:28 16° 322° (NW) 03:18:10 435.175 FM
JAS-1B 29 Aug 03:09:43 03:15:22 30° 94° (E) 03:20:25 435.800 - 435.900 CW/SSB
Gurwin Techsat 1B 29 Aug 03:22:32 03:26:13 19° 94° (E) 03:29:52 435.225 FM
PCSat 29 Aug 03:38:05 03:43:32 74° 63° (ENE) 03:48:55 145.825 MHz
Oscar 19 29 Aug 03:47:44 03:52:38 43° 288° (WNW) 03:57:30 437.125 CW, 437.150 USB
SO-50 29 Aug 03:54:52 03:58:02 19° 110° (ESE) 04:01:16 436.795 FM
OPAL 29 Aug 03:59:56 04:03:02 17° 62° (ENE) 04:06:10 ?
TMSAT-1 29 Aug 04:14:16 04:19:20 45° 99° (E) 04:24:22 436.925 FM
ITAMSAT 1 29 Aug 04:15:30 04:20:33 55° 287° (WNW) 04:25:36 435.822 SSB
Oscar 16 29 Aug 04:23:15 04:26:56 20° 294° (WNW) 04:30:35 437.025 USB, Beacon 2401.1428
Uribyol 2 29 Aug 04:26:09 04:30:59 41° 289° (WNW) 04:35:49 436.500 FM
AO-Echo 29 Aug 04:30:54 04:34:59 30° 290° (WNW) 04:39:05 ?
AO-27 29 Aug 04:44:33 04:48:57 29° 291° (WNW) 04:53:20 436.795 MHz FM
AO-7 29 Aug 04:50:52 04:57:28 26° 96° (E) 05:04:02 29.400 - 29.500 MHz
Sapphire 29 Aug 04:52:28 04:56:52 26° 253° (WSW) 05:01:16 437.095 MHz 1200 baud AX-25 AFSK
JAS-1B 29 Aug 05:00:04 05:06:04 35° 294° (WNW) 05:11:23 435.800 - 435.900 CW/SSB
Gurwin Techsat 1B 29 Aug 05:01:18 05:06:21 46° 288° (WNW) 05:11:22 435.225 FM
Uosat F 29 Aug 05:19:19 05:23:50 33° 98° (E) 05:28:19 435.120 FM
PCSat 29 Aug 05:24:15 05:26:13 12° 258° (WSW) 05:28:12 145.825 MHz
